Wind_Speed
40 37 37 37 36 36 34 31 29 28 27 26 25 25 27 28 28 27 28 29 30 31 32 33 35 37 38 39 38 37 36 34 33 34 33 33 32 33 33 34 35 35 33 31 29 28 27 26 25 26 27 28 29 30 31 32 34 36 37 39 41 42
42 39 38 37 36 36 36 33 31 29 27 26 26 25 25 26 26 26 27 28 29 30 32 34 36 37 38 38 38 37 36 34 33 33 34 33 33 33 34 35 35 35 35 33 31 30 30 29 29 29 30 31 32 32 33 34 36 37 39 40 43 43
43 41 39 38 35 35 36 33 30 28 26 25 24 23 24 24 25 27 28 30 32 33 35 36 37 37 38 38 38 37 36 35 34 34 34 34 34 34 34 35 35 36 35 34 32 32 32 32 32 31 32 33 33 34 35 36 37 39 40 43 45 45
43 42 40 38 35 34 34 30 26 25 25 24 23 23 24 26 28 30 32 33 35 36 37 38 38 38 38 38 38 37 37 37 36 35 34 34 35 34 35 36 36 36 36 35 34 34 34 33 33 33 33 34 35 35 36 37 39 40 42 44 46 47
43 42 40 37 34 33 32 28 25 25 26 26 26 27 28 31 32 34 35 36 37 37 38 39 39 39 38 38 38 38 38 38 38 37 35 34 35 35 35 36 36 36 36 36 35 35 35 35 35 35 36 36 36 37 38 39 40 41 43 45 47 48
42 41 38 35 33 32 30 27 26 27 27 29 31 32 34 36 37 37 37 37 38 39 40 40 39 39 39 39 39 40 40 39 39 38 37 36 35 35 36 36 36 37 36 36 35 36 36 36 37 38 38 38 38 39 40 41 42 43 45 47 49 50
41 39 35 32 31 31 30 29 30 31 33 35 38 38 38 39 39 38 37 39 40 41 41 41 40 39 40 40 40 40 40 40 39 39 38 37 36 36 37 37 37 37 36 36 36 37 37 38 39 40 40 40 41 41 42 42 43 44 46 49 50 50
39 37 35 33 33 34 35 36 37 38 40 42 42 41 40 40 39 38 40 44 44 43 42 41 40 40 40 40 40 40 40 40 40 39 39 38 37 38 38 37 37 37 37 37 37 37 38 39 41 42 42 42 43 43 43 43 44 45 47 49 50 51
37 36 34 35 36 38 39 39 40 41 42 42 42 41 41 41 41 42 45 47 47 45 44 42 41 41 41 40 40 40 40 40 39 39 39 38 38 39 38 38 38 37 37 37 37 38 39 41 42 43 44 44 44 44 44 44 45 46 48 50 50 52
36 34 34 35 36 38 39 39 39 40 41 41 41 41 41 43 44 46 49 49 49 48 47 45 43 41 40 41 41 40 39 39 38 39 39 40 40 40 39 39 37 36 36 36 37 39 41 43 44 45 45 45 45 44 45 45 46 47 48 50 52 54
34 33 33 34 35 36 38 38 39 40 41 40 40 41 43 45 47 49 51 51 51 51 50 49 45 42 41 41 41 40 39 38 38 39 40 41 41 41 41 39 37 36 35 36 39 41 43 45 46 46 46 45 45 45 45 46 47 48 49 52 54 56
34 33 33 34 36 37 38 39 40 41 40 40 40 43 45 47 49 51 52 51 52 52 52 50 46 42 41 42 42 40 39 39 39 40 41 42 42 42 42 40 38 37 38 39 42 45 47 48 47 46 45 45 45 45 45 46 47 49 51 53 55 57
34 34 34 35 36 38 40 41 41 41 41 40 42 44 46 48 50 50 50 50 51 51 50 48 45 43 44 45 44 42 40 40 41 41 42 42 43 42 42 41 40 41 41 42 45 48 50 49 46 45 45 45 45 45 45 46 48 50 51 53 55 57
34 35 34 36 38 40 42 42 43 43 42 42 43 45 46 46 47 47 48 49 49 47 47 47 46 45 46 46 44 42 42 42 43 43 43 43 42 42 42 42 42 44 45 46 48 51 52 49 45 45 44 45 45 45 45 46 49 50 52 54 55 57
35 35 35 37 40 42 43 44 44 44 44 44 45 45 45 46 47 48 49 49 48 48 48 47 46 47 48 46 44 43 44 44 44 43 43 42 42 42 43 44 45 47 47 49 52 53 51 47 45 45 44 44 44 44 46 47 49 51 53 54 56 57
35 36 37 39 41 43 44 45 46 47 46 46 47 47 47 48 49 49 48 48 49 51 50 47 48 51 53 48 42 42 42 43 43 42 41 42 43 43 44 45 46 47 49 51 53 51 48 46 45 45 44 44 44 44 46 48 50 52 54 55 56 58
36 37 39 41 43 44 45 46 47 46 45 46 46 45 46 46 46 47 48 49 51 52 51 52 55 56 52 45 40 41 42 42 42 41 42 43 44 44 45 46 47 48 51 52 51 48 46 45 45 44 44 43 44 45 47 49 51 52 54 56 57 58
37 38 41 43 44 46 46 46 47 46 44 43 44 45 46 46 47 49 51 52 52 53 54 54 54 50 44 41 42 44 44 44 43 43 43 44 45 45 47 48 49 51 51 50 47 45 44 44 44 44 43 44 45 46 48 49 51 53 55 57 58 59
38 40 43 44 45 46 45 46 47 47 46 47 49 50 49 49 50 50 52 53 52 50 49 46 43 40 39 41 45 48 48 47 46 45 45 45 45 47 48 49 50 51 50 47 45 43 43 44 44 43 44 45 46 48 49 50 52 54 56 57 59 60
40 42 44 45 45 46 46 46 47 45 44 45 46 46 45 47 49 49 51 51 48 45 44 41 39 40 42 44 51 54 52 49 47 46 46 46 47 48 50 50 51 49 47 44 43 42 43 43 44 44 45 47 48 49 50 52 54 55 57 58 59 60
41 44 45 44 45 45 44 44 44 43 42 41 42 44 46 48 48 49 50 48 46 48 49 47 46 46 47 50 57 58 53 49 47 47 48 48 49 49 50 49 48 46 44 42 42 42 43 43 45 46 47 48 50 51 52 53 55 56 57 58 59 60
42 44 43 41 42 42 41 42 43 43 44 44 46 47 46 47 49 49 47 46 51 56 57 55 54 53 53 59 62 57 51 48 48 49 49 48 48 47 47 46 45 43 42 42 42 42 43 44 46 48 49 50 51 52 53 54 55 57 58 59 60 61
42 44 42 40 41 41 40 41 41 42 43 44 45 47 46 45 44 45 47 52 59 60 55 52 52 53 56 59 56 51 48 48 49 48 47 46 45 44 44 44 43 42 42 42 43 44 45 47 48 49 49 51 51 52 54 55 56 57 58 60 61 62
38 43 43 41 41 41 41 41 41 43 45 45 45 46 43 39 40 46 53 57 58 55 50 47 50 53 54 51 50 51 50 49 47 45 44 43 43 44 44 44 42 42 43 44 45 46 48 49 49 49 50 51 52 53 54 55 57 58 59 60 62 63
39 44 46 44 42 42 45 47 47 47 49 48 47 48 44 40 45 52 56 56 55 54 50 49 54 57 54 52 54 54 50 46 44 42 42 43 43 44 44 44 44 44 44 45 47 48 50 50 50 50 51 53 54 54 55 56 58 59 60 62 63 64
43 48 47 48 47 47 49 50 49 50 51 49 45 43 44 46 50 55 57 56 55 54 53 55 59 59 56 55 54 49 44 42 41 42 42 43 43 44 45 45 46 46 46 47 49 50 50 50 51 52 54 55 56 56 56 58 59 60 62 63 64 65
46 51 49 48 49 51 52 52 53 54 54 51 44 44 51 55 56 58 60 56 53 54 57 59 58 55 53 52 48 44 42 42 42 42 43 43 45 46 47 48 48 48 49 50 50 50 51 51 53 55 56 56 56 57 58 60 61 62 63 64 65 65
47 53 50 49 51 53 55 56 57 58 57 56 52 54 59 58 54 55 55 53 52 54 55 53 51 50 49 46 44 43 43 43 43 43 44 46 47 48 49 50 49 50 50 51 51 51 52 54 56 57 57 57 58 59 61 62 63 64 64 65 65 65
48 51 50 52 54 56 59 60 61 61 61 61 60 61 60 52 49 50 49 47 47 47 46 47 49 49 46 45 45 45 45 45 45 46 47 47 48 49 50 50 50 50 51 51 52 53 55 57 58 58 58 59 60 61 62 63 64 65 65 65 64 65
49 51 53 56 57 59 61 61 62 61 61 62 61 61 58 52 49 49 46 44 42 43 47 51 52 49 47 48 48 48 47 47 47 47 47 48 50 50 50 50 50 50 51 53 54 56 57 58 59 59 59 60 62 63 64 64 65 65 65 65 65 65
52 53 56 58 59 60 61 61 61 60 60 59 58 57 55 50 48 45 44 44 44 48 53 54 52 50 50 50 49 47 47 46 46 47 48 50 50 50 49 49 50 52 53 55 57 58 59 59 59 60 61 62 63 64 64 65 65 65 65 65 66 66
54 56 57 58 59 60 59 59 59 58 57 54 51 49 47 45 43 43 44 46 49 52 54 53 51 50 49 47 45 45 44 45 47 48 49 49 48 49 49 51 52 54 56 57 59 59 59 59 60 61 62 63 64 64 64 64 64 65 65 66 67 67
55 56 57 57 59 58 57 57 55 51 49 47 45 44 43 42 42 43 46 48 49 49 50 50 50 48 45 43 43 44 46 47 47 47 47 48 49 51 52 53 55 57 58 59 59 59 59 60 61 62 63 63 64 64 64 64 64 65 66 66 67 66
54 56 57 57 57 56 54 52 47 42 41 43 43 43 43 42 43 44 46 47 47 47 48 48 46 44 43 43 45 45 46 45 46 47 48 51 52 54 55 57 58 58 59 59 59 59 60 61 62 63 63 64 63 63 63 63 64 65 66 66 66 66
55 56 56 56 54 52 49 46 43 41 41 42 42 43 43 43 44 44 45 46 47 47 45 44 43 43 43 44 45 44 45 46 48 51 53 55 56 57 57 58 58 58 58 58 59 60 61 62 63 63 63 63 62 62 63 64 64 65 65 65 66 67
55 54 53 52 50 48 44 40 39 39 41 41 42 43 44 44 45 45 45 47 47 45 43 42 42 43 43 44 45 46 48 51 54 55 56 57 57 57 57 57 57 57 58 59 61 62 62 63 63 63 62 62 62 62 63 63 63 64 64 65 66 68
52 50 49 49 47 44 41 38 36 36 38 40 41 42 42 44 45 45 46 46 45 44 43 43 44 45 46 48 50 52 54 55 56 57 57 57 57 57 56 56 57 58 59 61 62 62 62 62 62 61 61 61 61 62 62 62 62 63 65 66 67 69
Wind_Direction
294 293 290 291 294 299 298 289 288 292 299 304 301 293 290 293 297 298 299 298 299 300 302 305 308 311 312 313 314 315 315 316 317 319 321 323 323 324 327 329 332 334 334 333 333 333 334 331 326 322 320 320 319 317 315 312 310 309 308 307 303 303
293 291 288 291 294 295 296 290 286 291 298 301 299 295 293 294 297 298 300 301 302 304 306 309 310 311 312 312 313 313 313 313 315 317 318 319 320 320 323 326 327 329 330 329 329 329 330 329 327 324 322 320 319 317 314 312 310 309 309 305 301 302
293 292 288 290 294 293 293 289 286 292 297 296 293 293 292 293 296 299 302 304 306 307 309 309 309 310 311 310 310 311 311 312 313 314 315 316 317 318 320 322 324 325 325 325 325 326 327 326 325 324 322 320 319 316 314 312 310 309 307 303 300 303
292 292 289 291 293 291 289 286 286 290 289 286 286 287 290 294 298 301 304 305 306 307 307 307 307 308 309 308 308 309 310 311 312 312 313 314 314 315 317 319 320 321 322 322 322 323 324 324 324 323 322 320 318 316 314 312 309 307 305 301 301 304
290 291 289 290 291 286 283 282 283 283 280 280 282 286 289 294 298 302 304 306 307 307 307 307 307 308 308 307 308 308 309 310 310 310 310 310 311 312 313 315 316 317 318 319 319 321 321 321 322 321 320 319 317 315 314 311 309 307 304 301 302 304
287 288 287 288 285 280 277 278 280 281 282 284 286 288 290 293 297 301 304 307 309 310 310 310 309 308 308 307 307 308 308 309 310 308 307 308 308 309 310 311 312 313 315 316 317 318 319 319 320 319 318 317 315 314 312 310 308 306 303 300 302 305
283 283 282 280 276 274 274 278 282 286 288 289 290 291 291 293 296 299 303 307 309 310 310 311 310 309 308 308 308 308 308 309 309 307 306 305 305 306 308 308 309 310 312 313 314 316 317 318 318 317 317 315 314 312 310 308 306 304 301 300 302 305
279 278 276 272 268 269 272 277 282 286 288 290 291 291 291 292 294 297 301 306 307 308 309 310 311 310 309 309 309 308 308 308 307 305 304 303 302 304 305 305 306 308 309 311 312 314 316 316 316 315 314 313 312 310 308 306 305 304 301 302 304 305
276 274 272 268 265 266 270 275 281 285 287 289 290 291 290 289 292 297 303 305 307 308 308 309 310 309 308 308 308 308 307 306 305 304 302 301 300 302 302 303 304 305 307 309 311 313 315 315 314 313 312 311 310 308 307 305 304 303 302 303 304 304
274 273 271 269 267 269 273 277 281 284 287 288 289 289 288 288 292 298 302 304 304 306 307 308 308 307 306 306 307 306 305 304 302 301 300 299 299 300 300 300 301 303 305 307 310 313 314 313 312 311 310 309 308 307 306 304 303 303 303 303 303 303
274 273 271 270 271 272 274 277 281 284 287 288 288 287 286 289 293 297 299 300 302 304 306 306 306 305 304 304 305 304 302 301 300 299 299 298 299 298 298 298 298 300 303 306 310 313 313 312 311 309 308 307 306 306 304 303 303 303 303 302 301 300
272 272 271 271 272 273 274 277 280 283 286 286 285 285 287 289 292 294 296 299 302 303 304 304 304 304 304 304 304 302 300 298 298 298 298 298 298 297 296 295 294 297 300 305 309 312 313 311 309 307 306 305 305 304 303 302 301 301 300 299 298 298
269 270 271 270 271 271 273 275 278 281 284 284 284 285 288 290 292 294 297 300 302 303 303 302 303 305 306 305 303 300 298 297 298 298 297 297 297 296 295 293 292 295 299 303 308 311 311 309 306 305 304 304 303 303 302 300 299 298 297 297 297 297
267 269 270 270 269 269 271 274 276 280 282 284 286 288 289 292 294 295 299 303 304 303 303 302 302 303 306 306 301 298 297 297 298 297 296 296 295 295 294 292 292 295 297 302 306 309 309 306 304 304 303 303 302 302 300 298 297 297 297 297 297 297
268 269 270 269 268 269 271 273 276 279 282 284 287 289 290 293 295 295 300 303 302 301 301 301 302 302 306 306 300 297 296 297 297 296 294 294 294 294 294 293 293 295 296 300 304 306 306 303 303 303 302 302 301 300 298 297 296 296 297 297 298 298
268 269 269 268 268 269 271 272 275 278 281 283 286 287 289 292 294 294 298 300 297 297 298 300 302 303 305 304 299 297 297 298 297 294 293 293 294 294 294 295 295 295 297 299 302 303 302 301 302 302 301 301 300 299 297 296 297 297 297 298 299 300
267 268 267 267 267 268 270 272 275 279 283 285 286 288 290 293 294 293 294 295 295 296 296 299 302 301 301 300 299 300 300 299 296 293 292 292 292 293 294 296 296 297 299 301 301 301 300 300 301 300 300 300 299 297 297 297 298 298 299 299 300 301
266 266 265 265 266 268 270 273 276 279 282 283 285 288 290 291 291 290 289 292 295 296 297 300 301 298 296 298 300 303 303 300 296 292 292 291 291 292 294 296 296 298 300 301 300 299 299 299 299 299 299 299 298 299 299 299 300 300 300 300 301 302
265 265 265 265 267 270 273 275 277 279 279 281 283 286 287 287 287 287 287 291 295 297 302 303 299 294 294 298 304 306 304 300 295 293 293 293 293 293 295 296 297 298 299 298 298 298 298 298 298 298 298 299 300 301 301 301 301 301 301 301 302 302
265 265 265 268 271 273 275 276 277 280 282 282 283 286 288 287 286 287 291 294 295 299 306 303 296 292 291 298 306 306 302 299 295 294 294 295 294 294 294 296 297 298 297 296 296 297 297 297 297 298 299 301 301 302 302 302 302 302 301 301 301 301
264 266 269 273 275 276 276 274 275 278 280 279 281 284 287 290 291 292 294 295 295 299 302 299 294 290 288 295 302 302 298 296 295 294 295 295 294 294 295 296 296 295 294 295 295 295 296 296 298 299 300 301 302 302 303 303 302 301 301 301 301 301
267 269 272 274 273 274 274 274 275 276 275 276 279 282 288 294 297 295 293 292 294 297 297 294 290 288 287 291 297 298 295 295 295 295 295 295 294 295 295 296 294 293 293 294 294 294 295 296 298 300 301 302 302 302 302 302 302 301 301 301 301 302
270 270 271 269 270 274 275 274 275 275 275 277 278 281 288 295 295 291 289 291 293 295 294 291 287 286 288 290 293 297 296 296 296 296 295 295 296 296 295 293 292 292 293 294 294 294 295 298 299 301 301 302 302 301 301 302 301 301 301 301 302 302
266 268 269 269 270 274 275 273 273 275 277 278 277 280 284 285 285 284 287 292 294 293 292 290 287 289 291 291 294 297 297 298 297 296 296 296 296 295 292 291 292 293 294 294 294 295 297 299 300 301 301 301 302 301 301 301 301 301 302 302 302 302
262 265 269 270 270 271 273 273 274 277 281 282 281 282 280 277 280 284 288 291 291 290 289 286 287 289 290 291 294 298 298 297 297 296 296 295 294 293 292 292 293 293 294 294 295 296 298 300 300 301 301 302 302 302 301 301 301 302 302 302 303 303
263 264 265 268 269 269 271 272 273 277 283 286 288 287 284 283 285 286 289 290 287 285 282 281 285 287 288 291 296 298 298 297 297 296 295 294 293 293 293 293 293 293 294 294 296 297 299 300 301 302 303 303 303 302 302 302 303 303 303 304 304 304
262 264 265 266 268 269 269 271 273 277 281 282 282 281 282 285 286 285 289 289 284 279 279 280 284 287 289 293 297 298 297 297 296 294 293 293 293 293 293 293 293 293 293 295 297 298 300 301 302 304 304 303 302 303 303 303 304 304 304 305 305 305
258 264 267 265 265 267 270 272 275 277 279 279 277 278 282 283 282 284 288 287 280 276 277 280 284 288 291 294 296 296 295 294 293 292 292 292 293 293 292 292 292 293 294 297 299 300 302 303 304 304 303 302 303 303 304 304 305 305 305 305 305 305
258 263 265 265 265 267 270 273 275 276 278 278 278 280 282 281 280 284 285 281 277 275 276 281 287 290 292 294 294 293 291 290 290 291 292 292 293 292 292 292 293 295 297 300 301 302 304 304 304 303 303 303 303 304 305 305 305 305 305 306 306 306
259 261 262 265 267 269 270 272 274 276 277 279 279 280 281 280 280 282 279 275 274 275 279 285 288 290 291 292 292 291 289 289 290 292 292 292 292 292 292 293 295 297 300 302 303 303 304 304 303 303 303 303 304 305 306 306 306 306 306 307 307 307
260 261 263 266 268 269 271 273 275 276 278 279 280 280 280 279 277 274 270 268 269 273 279 283 285 287 289 290 290 290 290 290 291 292 292 291 292 292 294 296 298 300 302 303 303 303 303 303 302 303 304 305 306 306 306 307 307 307 307 308 308 309
262 263 265 266 268 269 271 273 276 277 278 278 278 278 277 274 271 267 264 266 270 275 280 282 284 286 288 289 289 290 290 290 291 291 291 291 292 294 296 298 300 302 303 303 303 302 302 302 303 304 305 306 306 306 307 307 307 308 308 308 309 310
264 265 266 267 268 270 272 274 276 276 275 274 273 274 273 269 267 267 269 274 278 280 281 282 284 286 287 288 288 288 288 289 289 290 291 292 294 296 298 300 301 302 302 302 302 301 301 302 303 304 305 306 306 306 307 307 308 308 309 309 310 311
265 266 267 268 269 272 273 274 273 271 269 270 270 271 271 269 270 273 277 281 282 282 282 282 283 284 286 286 286 286 287 287 289 291 293 295 296 298 299 300 301 301 301 301 300 301 302 303 304 305 305 306 306 307 308 308 309 309 310 311 311 311
267 267 268 268 270 271 271 268 266 264 265 267 268 269 270 272 276 280 282 283 283 283 282 282 283 284 284 283 283 284 285 288 290 292 294 295 297 298 299 299 299 300 300 300 300 301 302 303 304 305 306 306 307 308 309 310 310 311 312 312 311 312
266 267 267 268 267 267 266 263 262 263 263 263 263 266 270 275 280 282 283 283 283 283 282 281 281 281 280 281 283 285 287 289 291 292 294 295 296 297 298 298 299 299 299 299 300 301 303 304 305 305 306 307 308 309 311 311 312 312 312 312 312 313
265 265 265 265 264 263 262 261 261 264 263 262 263 266 270 276 281 282 282 282 282 281 279 278 277 278 279 281 284 286 287 289 291 292 293 295 296 296 297 298 298 298 299 300 301 302 303 304 305 306 307 308 310 311 312 312 312 313 313 314 314 315
Height
10860 10860 10859 10858 10857 10856 10855 10854 10853 10852 10850 10849 10849 10848 10847 10846 10846 10846 10845 10844 10843 10843 10842 10842 10841 10840 10838 10837 10835 10834 10833 10831 10830 10829 10827 10826 10825 10824 10822 10821 10819 10817 10816 10814 10813 10811 10809 10808 10806 10804 10803 10801 10800 10798 10797 10795 10793 10792 10790 10789 10786 10783
10856 10857 10856 10856 10855 10853 10852 10851 10851 10849 10848 10847 10846 10846 10845 10844 10844 10843 10843 10842 10841 10840 10839 10839 10838 10837 10836 10834 10833 10831 10830 10828 10827 10826 10824 10823 10822 10821 10819 10817 10816 10814 10813 10811 10809 10808 10806 10804 10803 10801 10799 10798 10796 10794 10793 10791 10789 10788 10786 10785 10781 10778
10853 10853 10853 10853 10852 10850 10849 10849 10848 10847 10845 10845 10844 10843 10843 10842 10841 10841 10840 10840 10838 10837 10837 10836 10835 10834 10833 10831 10830 10829 10827 10825 10824 10823 10821 10820 10819 10818 10816 10814 10812 10811 10809 10807 10806 10804 10802 10801 10799 10797 10796 10794 10792 10790 10789 10787 10786 10784 10782 10780 10776 10773
10849 10849 10850 10850 10849 10848 10846 10846 10845 10844 10843 10843 10842 10841 10840 10839 10839 10838 10837 10836 10835 10834 10834 10833 10832 10831 10830 10828 10827 10826 10824 10822 10821 10819 10818 10817 10815 10814 10813 10811 10809 10807 10805 10804 10802 10800 10798 10797 10795 10794 10792 10790 10788 10786 10785 10783 10781 10780 10778 10775 10771 10768
10846 10846 10847 10846 10846 10845 10844 10843 10842 10842 10841 10840 10839 10838 10837 10836 10836 10835 10834 10833 10832 10831 10830 10830 10829 10828 10827 10825 10824 10823 10821 10819 10818 10816 10815 10814 10812 10811 10810 10807 10805 10804 10802 10800 10798 10796 10795 10793 10791 10790 10788 10786 10784 10782 10780 10778 10777 10775 10773 10769 10766 10763
10843 10843 10843 10843 10843 10842 10841 10840 10839 10839 10838 10838 10837 10836 10834 10833 10833 10831 10830 10829 10828 10827 10827 10826 10825 10824 10823 10821 10820 10819 10818 10816 10815 10813 10812 10810 10809 10807 10806 10804 10802 10800 10798 10796 10794 10792 10791 10789 10787 10785 10783 10781 10779 10777 10775 10773 10772 10770 10768 10763 10760 10758
10840 10840 10840 10840 10839 10838 10838 10837 10836 10836 10835 10835 10834 10833 10832 10831 10829 10828 10827 10826 10825 10824 10823 10822 10822 10820 10819 10818 10817 10815 10814 10813 10812 10810 10808 10807 10805 10803 10802 10800 10798 10796 10794 10792 10790 10788 10787 10785 10783 10781 10779 10777 10774 10772 10770 10768 10767 10765 10762 10758 10755 10754
10836 10836 10837 10836 10836 10835 10834 10834 10834 10833 10833 10832 10831 10830 10829 10827 10826 10824 10823 10822 10821 10821 10820 10819 10818 10817 10815 10814 10813 10812 10810 10809 10808 10807 10805 10803 10802 10800 10798 10796 10794 10792 10790 10788 10787 10785 10783 10781 10779 10777 10774 10772 10770 10767 10765 10763 10762 10759 10756 10753 10751 10749
10833 10833 10833 10833 10832 10832 10831 10831 10831 10830 10830 10829 10828 10827 10825 10824 10822 10821 10819 10818 10817 10817 10816 10815 10814 10813 10811 10810 10809 10808 10806 10805 10804 10803 10802 10800 10798 10797 10795 10793 10790 10788 10787 10785 10783 10781 10779 10777 10775 10772 10770 10767 10765 10762 10760 10758 10756 10754 10751 10748 10745 10743
10829 10829 10829 10829 10829 10828 10828 10828 10827 10827 10826 10825 10824 10823 10822 10820 10819 10817 10816 10815 10814 10813 10812 10811 10810 10809 10807 10807 10806 10804 10803 10801 10800 10799 10798 10797 10795 10793 10791 10789 10787 10785 10784 10782 10780 10778 10775 10773 10770 10768 10765 10763 10760 10758 10755 10753 10751 10749 10746 10743 10740 10738
10825 10825 10825 10825 10825 10825 10825 10824 10823 10823 10822 10821 10820 10820 10818 10817 10815 10814 10812 10811 10810 10809 10808 10808 10807 10805 10804 10803 10802 10801 10799 10798 10796 10795 10794 10793 10792 10790 10788 10786 10784 10782 10780 10778 10776 10774 10772 10769 10766 10763 10761 10758 10756 10753 10750 10748 10745 10743 10741 10738 10735 10732
10820 10820 10821 10821 10821 10821 10820 10820 10819 10818 10817 10817 10817 10816 10815 10813 10812 10811 10809 10808 10807 10806 10805 10804 10803 10802 10800 10799 10798 10797 10796 10794 10793 10791 10790 10789 10787 10785 10784 10782 10780 10778 10776 10775 10772 10770 10768 10765 10762 10759 10756 10754 10751 10749 10746 10743 10741 10739 10737 10734 10731 10728
10816 10816 10817 10817 10817 10816 10815 10815 10815 10814 10813 10813 10813 10812 10811 10810 10809 10807 10805 10804 10803 10802 10800 10799 10799 10798 10797 10795 10794 10793 10791 10790 10788 10787 10785 10784 10783 10781 10779 10778 10776 10773 10771 10770 10768 10766 10763 10761 10758 10755 10752 10749 10746 10744 10741 10739 10737 10734 10732 10730 10727 10724
10812 10812 10813 10813 10812 10811 10811 10811 10810 10810 10810 10809 10809 10808 10808 10806 10805 10803 10802 10800 10799 10798 10797 10796 10795 10794 10793 10792 10790 10789 10787 10786 10784 10782 10781 10780 10778 10777 10775 10773 10771 10769 10766 10765 10763 10760 10758 10755 10753 10750 10747 10744 10742 10739 10737 10735 10732 10730 10727 10724 10722 10719
10808 10808 10809 10808 10807 10807 10806 10807 10807 10806 10806 10806 10805 10804 10803 10802 10801 10799 10798 10797 10796 10795 10793 10792 10791 10790 10789 10787 10786 10784 10783 10781 10780 10778 10777 10776 10774 10773 10771 10769 10767 10765 10762 10760 10758 10755 10753 10750 10747 10745 10743 10740 10737 10735 10732 10730 10727 10725 10722 10719 10717 10713
10804 10805 10805 10804 10803 10803 10803 10803 10803 10802 10803 10802 10801 10800 10799 10798 10797 10795 10794 10793 10793 10791 10790 10789 10787 10785 10784 10783 10781 10780 10778 10777 10775 10774 10773 10772 10770 10769 10767 10765 10763 10761 10758 10755 10753 10751 10748 10745 10743 10741 10738 10736 10733 10731 10728 10725 10723 10720 10717 10714 10711 10708
10801 10801 10800 10799 10799 10799 10799 10800 10799 10799 10799 10798 10797 10796 10795 10794 10793 10791 10790 10789 10788 10787 10786 10784 10782 10780 10779 10778 10777 10775 10774 10772 10771 10770 10769 10768 10766 10765 10763 10761 10759 10756 10753 10751 10749 10746 10743 10741 10739 10736 10734 10732 10729 10726 10723 10720 10718 10715 10712 10708 10705 10702
10798 10797 10795 10795 10795 10795 10796 10796 10796 10796 10796 10794 10793 10792 10791 10790 10788 10787 10785 10784 10784 10783 10782 10780 10778 10776 10775 10774 10772 10771 10769 10768 10767 10766 10765 10763 10762 10760 10758 10757 10754 10752 10749 10746 10744 10741 10739 10737 10735 10732 10730 10728 10725 10722 10719 10716 10713 10710 10706 10703 10699 10696
10794 10792 10790 10790 10790 10791 10792 10793 10792 10792 10792 10791 10789 10788 10786 10785 10783 10782 10780 10779 10780 10779 10778 10776 10774 10772 10771 10769 10768 10766 10765 10764 10762 10761 10760 10758 10757 10755 10754 10752 10750 10747 10744 10742 10740 10737 10735 10733 10730 10728 10726 10723 10720 10717 10715 10712 10708 10705 10701 10697 10694 10690
10788 10786 10785 10786 10787 10787 10789 10789 10788 10788 10788 10787 10786 10784 10783 10781 10779 10777 10775 10774 10774 10774 10774 10772 10771 10769 10767 10765 10764 10762 10760 10759 10757 10756 10755 10753 10752 10750 10748 10747 10745 10743 10740 10738 10736 10733 10731 10728 10726 10724 10721 10718 10715 10712 10710 10707 10703 10699 10695 10692 10688 10684
10783 10781 10782 10783 10784 10783 10784 10785 10784 10784 10784 10783 10782 10781 10779 10776 10774 10773 10771 10769 10767 10768 10769 10769 10767 10765 10763 10761 10760 10759 10757 10755 10753 10751 10750 10749 10747 10745 10743 10742 10740 10738 10736 10733 10732 10729 10727 10724 10721 10719 10716 10713 10710 10707 10704 10701 10697 10693 10690 10686 10683 10679
10779 10778 10779 10780 10780 10780 10780 10780 10779 10779 10779 10779 10779 10778 10776 10773 10769 10766 10765 10764 10763 10763 10764 10763 10762 10760 10759 10757 10756 10755 10753 10751 10749 10747 10745 10743 10741 10740 10738 10737 10735 10733 10731 10729 10727 10725 10723 10720 10717 10714 10711 10708 10705 10702 10698 10695 10692 10688 10684 10680 10676 10672
10776 10773 10774 10775 10775 10776 10776 10775 10775 10774 10774 10775 10775 10774 10773 10771 10766 10762 10759 10760 10759 10759 10759 10758 10757 10756 10754 10753 10752 10751 10748 10746 10744 10742 10740 10738 10736 10735 10733 10732 10731 10729 10727 10724 10722 10720 10718 10716 10713 10710 10706 10703 10700 10697 10693 10690 10686 10682 10678 10674 10670 10666
10773 10768 10768 10770 10771 10772 10772 10771 10771 10770 10769 10771 10772 10770 10770 10768 10765 10760 10756 10755 10755 10753 10754 10753 10752 10751 10750 10749 10748 10746 10744 10742 10739 10737 10735 10733 10731 10730 10728 10727 10726 10724 10722 10719 10717 10715 10712 10710 10707 10705 10702 10699 10696 10692 10688 10684 10680 10676 10672 10668 10664 10660
10770 10765 10763 10765 10767 10768 10767 10767 10767 10766 10764 10766 10767 10765 10764 10763 10763 10759 10754 10753 10752 10749 10749 10748 10746 10746 10745 10744 10742 10741 10739 10736 10734 10732 10730 10728 10727 10725 10724 10722 10720 10719 10717 10715 10712 10710 10707 10704 10702 10699 10696 10693 10690 10687 10683 10679 10675 10671 10666 10662 10658 10653
10766 10760 10760 10761 10762 10763 10762 10761 10761 10760 10759 10760 10761 10759 10755 10755 10757 10755 10751 10749 10747 10745 10744 10742 10741 10740 10740 10739 10737 10736 10734 10732 10730 10728 10726 10724 10723 10721 10719 10717 10715 10713 10711 10709 10707 10705 10702 10699 10696 10693 10690 10687 10683 10680 10676 10672 10669 10664 10660 10656 10651 10646
10760 10753 10757 10759 10758 10757 10756 10756 10756 10756 10756 10757 10758 10755 10749 10749 10751 10748 10745 10744 10742 10741 10739 10737 10736 10736 10735 10734 10732 10731 10729 10727 10726 10724 10722 10721 10719 10717 10714 10712 10710 10708 10706 10704 10702 10699 10696 10694 10691 10687 10684 10680 10676 10673 10669 10666 10662 10657 10653 10648 10643 10639
10756 10750 10753 10754 10753 10752 10751 10751 10751 10753 10753 10753 10754 10752 10746 10745 10745 10743 10741 10739 10738 10736 10735 10733 10733 10732 10731 10730 10728 10726 10725 10723 10722 10720 10718 10716 10714 10712 10710 10707 10705 10702 10700 10698 10696 10693 10690 10688 10684 10681 10677 10674 10670 10667 10663 10659 10655 10650 10646 10641 10636 10631
10756 10751 10749 10749 10749 10748 10747 10747 10747 10748 10748 10747 10748 10746 10742 10741 10740 10739 10737 10735 10734 10732 10731 10730 10729 10728 10727 10725 10723 10722 10720 10719 10717 10716 10714 10712 10709 10707 10705 10702 10700 10697 10695 10692 10690 10687 10684 10681 10678 10674 10671 10667 10664 10660 10656 10652 10647 10643 10639 10634 10630 10624
10754 10750 10746 10745 10745 10744 10743 10743 10742 10743 10742 10741 10741 10740 10737 10737 10736 10735 10733 10732 10730 10729 10728 10726 10725 10724 10722 10721 10719 10717 10716 10715 10713 10711 10709 10707 10704 10702 10700 10697 10695 10692 10689 10687 10684 10681 10678 10675 10671 10668 10664 10660 10656 10652 10648 10644 10639 10635 10630 10626 10622 10617
10750 10746 10743 10742 10741 10740 10739 10739 10738 10738 10737 10736 10735 10733 10732 10732 10731 10730 10729 10727 10726 10725 10724 10722 10721 10720 10718 10716 10715 10713 10712 10710 10708 10706 10704 10702 10700 10697 10695 10692 10690 10687 10684 10681 10678 10675 10672 10668 10665 10661 10657 10653 10649 10644 10640 10636 10631 10627 10622 10618 10614 10609
10743 10741 10739 10738 10736 10735 10735 10735 10735 10733 10732 10730 10729 10728 10728 10727 10726 10725 10724 10723 10722 10721 10719 10718 10717 10715 10713 10712 10710 10709 10707 10706 10704 10702 10700 10698 10695 10693 10690 10687 10685 10682 10679 10676 10673 10669 10666 10662 10658 10654 10650 10646 10642 10637 10633 10628 10624 10619 10615 10610 10606 10602
10737 10735 10734 10733 10730 10730 10731 10731 10731 10729 10726 10725 10724 10724 10723 10722 10722 10721 10720 10719 10718 10716 10715 10714 10713 10711 10709 10708 10706 10705 10703 10701 10700 10698 10695 10693 10691 10688 10685 10683 10680 10677 10674 10671 10667 10664 10660 10656 10652 10648 10644 10640 10635 10631 10626 10622 10617 10612 10608 10603 10599 10595
10731 10729 10727 10726 10726 10726 10727 10726 10727 10724 10721 10720 10720 10719 10718 10718 10717 10716 10715 10714 10713 10712 10711 10709 10708 10707 10705 10704 10702 10701 10699 10697 10695 10693 10691 10689 10686 10684 10681 10678 10675 10672 10669 10665 10662 10658 10655 10651 10646 10642 10638 10633 10629 10624 10620 10615 10610 10605 10601 10596 10592 10588
10722 10721 10720 10722 10722 10722 10721 10720 10721 10719 10716 10715 10714 10714 10713 10713 10712 10711 10710 10709 10708 10707 10706 10705 10703 10702 10701 10700 10698 10697 10695 10693 10691 10689 10686 10684 10681 10679 10676 10673 10670 10666 10663 10660 10656 10653 10649 10645 10640 10636 10631 10627 10622 10618 10613 10608 10603 10599 10594 10589 10585 10581
10714 10714 10714 10715 10715 10715 10715 10715 10714 10713 10711 10710 10709 10709 10709 10708 10707 10706 10705 10704 10703 10702 10701 10700 10699 10698 10697 10695 10694 10692 10690 10688 10686 10684 10682 10679 10676 10673 10670 10667 10664 10661 10658 10654 10651 10647 10643 10638 10634 10629 10625 10620 10616 10612 10607 10602 10597 10592 10587 10583 10578 10573
10707 10708 10707 10707 10707 10709 10710 10710 10710 10708 10707 10706 10705 10705 10705 10704 10703 10702 10701 10700 10699 10698 10697 10696 10695 10694 10692 10691 10689 10687 10685 10683 10681 10679 10676 10674 10671 10668 10665 10662 10659 10655 10652 10648 10644 10640 10636 10632 10627 10623 10619 10614 10610 10605 10601 10596 10591 10586 10581 10576 10571 10566